| time (UTC) | temp F | wind direction | speed MPH | gust MPH | rain 1hr in | rain 24hr in | rain mn in | humidity % | barometer mb |
| 20260905220051 | 79 | 43 | 0.0 | 1.0 | 0.00 | 0.68 | 0.67 | 94 | 1011.6 |
| 20260905215551 | 78 | 103 | 0.0 | 0.0 | 0.00 | 0.72 | 0.67 | 95 | 1011.5 |
| 20260905215050 | 78 | 78 | 0.0 | 0.0 | 0.00 | 0.72 | 0.67 | 95 | 1011.5 |
| 20260905214549 | 78 | 78 | 0.0 | 0.0 | 0.00 | 0.72 | 0.67 | 95 | 1011.6 |
| 20260905214049 | 78 | 41 | 0.0 | 0.0 | 0.00 | 0.72 | 0.67 | 95 | 1011.5 |
| 20260905213550 | 78 | 127 | 0.0 | 0.0 | 0.00 | 0.72 | 0.67 | 95 | 1011.5 |
| 20260905213047 | 78 | 128 | 0.0 | 0.0 | 0.00 | 0.72 | 0.67 | 95 | 1011.7 |
| 20260905212546 | 77 | 128 | 0.0 | 0.0 | 0.00 | 0.72 | 0.67 | 95 | 1011.8 |
| 20260905212045 | 78 | 170 | 0.0 | 0.0 | 0.00 | 0.72 | 0.67 | 95 | 1011.8 |
| 20260905211545 | 77 | 170 | 0.0 | 0.0 | 0.00 | 0.72 | 0.67 | 95 | 1011.8 |
| 20260905211042 | 77 | 170 | 0.0 | 0.0 | 0.00 | 0.72 | 0.67 | 95 | 1011.8 |
| 20260905210544 | 77 | 169 | 0.0 | 2.0 | 0.00 | 0.72 | 0.67 | 95 | 1011.9 |
| 20260905210042 | 77 | 169 | 0.0 | 2.0 | 0.00 | 0.72 | 0.67 | 95 | 1011.8 |
| 20260905205544 | 78 | 197 | 0.0 | 0.0 | 0.00 | 0.74 | 0.67 | 95 | 1011.8 |
| 20260905205041 | 78 | 197 | 0.0 | 0.0 | 0.00 | 0.74 | 0.67 | 95 | 1011.9 |
| 20260905204548 | 77 | 261 | 0.0 | 0.0 | 0.00 | 0.74 | 0.67 | 95 | 1011.9 |
| 20260905204043 | 78 | 261 | 0.0 | 0.0 | 0.00 | 0.74 | 0.67 | 95 | 1011.8 |
| 20260905203539 | 78 | 261 | 0.0 | 2.0 | 0.00 | 0.74 | 0.67 | 95 | 1011.9 |
| 20260905203038 | 78 | 259 | 0.0 | 0.0 | 0.00 | 0.74 | 0.67 | 95 | 1012.0 |
| 20260905202536 | 77 | 259 | 0.0 | 0.0 | 0.00 | 0.74 | 0.67 | 95 | 1011.9 |
| 20260905202037 | 77 | 259 | 0.0 | 2.0 | 0.00 | 0.74 | 0.67 | 94 | 1011.9 |
| 20260905201540 | 77 | 257 | 0.0 | 2.0 | 0.00 | 0.74 | 0.67 | 94 | 1012.0 |
| 20260905201034 | 77 | 103 | 0.0 | 0.0 | 0.01 | 0.74 | 0.67 | 94 | 1012.0 |
| 20260905200534 | 77 | 103 | 0.0 | 0.0 | 0.02 | 0.74 | 0.67 | 94 | 1011.7 |
| 20260905200040 | 77 | 103 | 0.0 | 0.0 | 0.07 | 0.74 | 0.67 | 94 | 1011.8 |
| 20260905195532 | 77 | 103 | 0.0 | 0.0 | 0.18 | 0.89 | 0.67 | 94 | 1011.9 |
| 20260905195031 | 77 | 103 | 0.0 | 0.0 | 0.42 | 0.89 | 0.67 | 94 | 1012.0 |
| 20260905194533 | 76 | 103 | 0.0 | 0.0 | 0.62 | 0.89 | 0.67 | 94 | 1012.2 |
| 20260905194033 | 76 | 103 | 0.0 | 0.0 | 0.66 | 0.89 | 0.67 | 94 | 1012.2 |
| 20260905193529 | 76 | 103 | 0.0 | 0.0 | 0.66 | 0.89 | 0.67 | 94 | 1012.4 |
| 20260905193029 | 76 | 103 | 0.0 | 0.0 | 0.66 | 0.89 | 0.67 | 93 | 1012.5 |
| 20260905192529 | 75 | 103 | 0.0 | 0.0 | 0.66 | 0.89 | 0.67 | 92 | 1012.4 |
| 20260905192029 | 75 | 103 | 0.0 | 0.0 | 0.66 | 0.89 | 0.67 | 92 | 1012.1 |
| 20260905191527 | 75 | 103 | 0.0 | 0.0 | 0.66 | 0.89 | 0.67 | 91 | 1012.1 |
| 20260905191026 | 76 | 129 | 0.0 | 0.0 | 0.65 | 0.88 | 0.66 | 91 | 1012.2 |
| 20260905190525 | 76 | 141 | 0.0 | 0.0 | 0.64 | 0.87 | 0.65 | 90 | 1012.5 |
| 20260905190030 | 77 | 96 | 0.0 | 15.0 | 0.59 | 0.82 | 0.60 | 88 | 1012.8 |
| 20260905185524 | 78 | 150 | 0.0 | 22.0 | 0.46 | 0.69 | 0.47 | 86 | 1013.2 |
| 20260905185028 | 82 | 294 | 0.0 | 9.0 | 0.20 | 0.43 | 0.21 | 85 | 1013.2 |
| 20260905184523 | 87 | 319 | 3.0 | 14.0 | 0.00 | 0.23 | 0.01 | 81 | 1013.1 |
| 20260905184023 | 92 | 312 | 0.0 | 3.0 | 0.00 | 0.23 | 0.01 | 75 | 1012.6 |
| 20260905183522 | 93 | 240 | 0.0 | 3.0 | 0.00 | 0.23 | 0.01 | 74 | 1012.1 |
| 20260905183020 | 93 | 278 | 0.0 | 3.0 | 0.00 | 0.23 | 0.01 | 74 | 1011.9 |
| 20260905182518 | 94 | 269 | 0.0 | 2.0 | 0.00 | 0.23 | 0.01 | 72 | 1012.0 |
| 20260905182016 | 94 | 124 | 0.0 | 2.0 | 0.00 | 0.23 | 0.01 | 74 | 1012.1 |
| 20260905181514 | 93 | 210 | 0.0 | 3.0 | 0.00 | 0.23 | 0.01 | 74 | 1012.1 |
| 20260905181012 | 93 | 331 | 0.0 | 3.0 | 0.00 | 0.23 | 0.01 | 76 | 1012.1 |
| 20260905180511 | 93 | 221 | 0.0 | 3.0 | 0.00 | 0.23 | 0.01 | 75 | 1012.2 |
| 20260905180008 | 93 | 255 | 0.0 | 3.0 | 0.00 | 0.23 | 0.01 | 75 | 1012.3 |
| 20260905175507 | 93 | 229 | 0.0 | 2.0 | 0.00 | 0.23 | 0.01 | 75 | 1012.3 |
| 20260905175005 | 93 | 220 | 0.0 | 2.0 | 0.00 | 0.23 | 0.01 | 73 | 1012.4 |
| 20260905174505 | 92 | 247 | 0.0 | 3.0 | 0.00 | 0.23 | 0.01 | 75 | 1012.6 |
| 20260905174001 | 92 | 257 | 0.0 | 3.0 | 0.00 | 0.23 | 0.01 | 74 | 1012.8 |
| 20260905173600 | 92 | 238 | 0.0 | 4.0 | 0.00 | 0.23 | 0.01 | 74 | 1012.8 |
| 20260905173059 | 92 | 242 | 0.0 | 4.0 | 0.00 | 0.23 | 0.01 | 76 | 1012.8 |
| 20260905172558 | 92 | 301 | 0.0 | 3.0 | 0.00 | 0.23 | 0.01 | 74 | 1012.8 |
| 20260905172057 | 92 | 220 | 0.0 | 3.0 | 0.00 | 0.23 | 0.01 | 77 | 1012.8 |
| 20260905171555 | 91 | 312 | 0.0 | 4.0 | 0.00 | 0.23 | 0.01 | 76 | 1012.9 |
| 20260905171057 | 91 | 263 | 0.0 | 9.0 | 0.00 | 0.23 | 0.01 | 79 | 1013.0 |
| 20260905170554 | 92 | 257 | 2.0 | 9.0 | 0.00 | 0.23 | 0.01 | 77 | 1013.2 |
| 20260905170057 | 92 | 245 | 0.0 | 5.0 | 0.00 | 0.23 | 0.01 | 78 | 1013.3 |
| 20260905165550 | 92 | 264 | 0.0 | 5.0 | 0.00 | 0.23 | 0.01 | 77 | 1013.4 |
| 20260905165051 | 92 | 256 | 0.0 | 6.0 | 0.00 | 0.23 | 0.01 | 79 | 1013.4 |
| 20260905164547 | 92 | 245 | 1.0 | 6.0 | 0.00 | 0.23 | 0.01 | 79 | 1013.5 |
| 20260905164045 | 92 | 245 | 0.0 | 5.0 | 0.00 | 0.23 | 0.01 | 81 | 1013.6 |
| 20260905163542 | 91 | 241 | 0.0 | 6.0 | 0.00 | 0.23 | 0.01 | 81 | 1013.7 |
| 20260905163041 | 90 | 288 | 1.0 | 6.0 | 0.00 | 0.23 | 0.01 | 81 | 1013.7 |
| 20260905162543 | 90 | 238 | 0.0 | 4.0 | 0.00 | 0.23 | 0.01 | 82 | 1013.8 |
| 20260905162038 | 89 | 236 | 1.0 | 6.0 | 0.00 | 0.23 | 0.01 | 81 | 1013.9 |
| 20260905161536 | 90 | 231 | 0.0 | 5.0 | 0.00 | 0.23 | 0.01 | 82 | 1014.0 |
| 20260905161035 | 90 | 264 | 1.0 | 4.0 | 0.00 | 0.23 | 0.01 | 81 | 1014.0 |
| 20260905160533 | 90 | 243 | 0.0 | 2.0 | 0.00 | 0.23 | 0.01 | 82 | 1014.0 |
| 20260905160041 | 89 | 283 | 0.0 | 4.0 | 0.00 | 0.23 | 0.01 | 81 | 1014.1 |
| 20260905155532 | 89 | 222 | 1.0 | 7.0 | 0.00 | 0.23 | 0.01 | 82 | 1014.2 |
| 20260905155030 | 89 | 237 | 1.0 | 7.0 | 0.00 | 0.23 | 0.01 | 82 | 1014.3 |
| 20260905154528 | 90 | 336 | 0.0 | 2.0 | 0.00 | 0.23 | 0.01 | 82 | 1014.4 |
| 20260905154027 | 89 | 265 | 0.0 | 6.0 | 0.00 | 0.23 | 0.01 | 83 | 1014.4 |
| 20260905153526 | 89 | 252 | 0.0 | 6.0 | 0.00 | 0.23 | 0.01 | 83 | 1014.4 |
| 20260905153022 | 89 | 274 | 0.0 | 5.0 | 0.00 | 0.23 | 0.01 | 84 | 1014.5 |
| 20260905152521 | 88 | 253 | 0.0 | 4.0 | 0.00 | 0.23 | 0.01 | 84 | 1014.5 |
| 20260905152019 | 87 | 318 | 0.0 | 5.0 | 0.00 | 0.23 | 0.01 | 84 | 1014.5 |
| 20260905151518 | 87 | 288 | 0.0 | 5.0 | 0.00 | 0.23 | 0.01 | 84 | 1014.6 |
| 20260905151017 | 87 | 217 | 1.0 | 4.0 | 0.00 | 0.23 | 0.01 | 85 | 1014.6 |
| 20260905150515 | 87 | 244 | 0.0 | 3.0 | 0.00 | 0.23 | 0.01 | 84 | 1014.6 |
| 20260905150013 | 86 | 243 | 0.0 | 5.0 | 0.00 | 0.23 | 0.01 | 86 | 1014.5 |
| 20260905145512 | 86 | 245 | 0.0 | 4.0 | 0.01 | 0.23 | 0.01 | 86 | 1014.6 |
| 20260905145011 | 86 | 300 | 0.0 | 5.0 | 0.01 | 0.23 | 0.01 | 87 | 1014.6 |
| 20260905144509 | 85 | 232 | 1.0 | 5.0 | 0.01 | 0.23 | 0.01 | 85 | 1014.6 |
| 20260905144007 | 85 | 310 | 0.0 | 3.0 | 0.01 | 0.23 | 0.01 | 87 | 1014.7 |
| 20260905143507 | 85 | 297 | 0.0 | 4.0 | 0.01 | 0.23 | 0.01 | 87 | 1014.7 |
| 20260905143005 | 85 | 250 | 0.0 | 4.0 | 0.01 | 0.23 | 0.01 | 87 | 1014.7 |
| 20260905142503 | 85 | 244 | 0.0 | 3.0 | 0.01 | 0.23 | 0.01 | 88 | 1014.8 |
| 20260905142001 | 84 | 245 | 0.0 | 3.0 | 0.01 | 0.23 | 0.01 | 89 | 1014.8 |
| 20260905141600 | 84 | 220 | 0.0 | 3.0 | 0.01 | 0.23 | 0.01 | 89 | 1014.7 |
| 20260905141102 | 83 | 248 | 0.0 | 2.0 | 0.01 | 0.23 | 0.01 | 89 | 1014.8 |
| 20260905140558 | 83 | 313 | 0.0 | 2.0 | 0.01 | 0.23 | 0.01 | 89 | 1014.7 |
| 20260905140056 | 83 | 304 | 0.0 | 2.0 | 0.01 | 0.23 | 0.01 | 90 | 1014.7 |
| 20260905135553 | 82 | 307 | 0.0 | 2.0 | 0.00 | 0.22 | 0.00 | 91 | 1014.6 |
| 20260905135052 | 82 | 207 | 0.0 | 2.0 | 0.00 | 0.22 | 0.00 | 92 | 1014.5 |
| 20260905134556 | 81 | 238 | 0.0 | 4.0 | 0.00 | 0.22 | 0.00 | 92 | 1014.6 |
| 20260905134052 | 81 | 256 | 0.0 | 4.0 | 0.00 | 0.22 | 0.00 | 92 | 1014.5 |
| 20260905133547 | 80 | 204 | 0.0 | 1.0 | 0.00 | 0.22 | 0.00 | 94 | 1014.5 |
| 20260905133046 | 80 | 243 | 0.0 | 2.0 | 0.00 | 0.22 | 0.00 | 94 | 1014.6 |
| 20260905132548 | 79 | 226 | 0.0 | 2.0 | 0.00 | 0.22 | 0.00 | 95 | 1014.6 |
| 20260905132045 | 79 | 240 | 0.0 | 1.0 | 0.00 | 0.22 | 0.00 | 96 | 1014.5 |
| 20260905131548 | 79 | 251 | 0.0 | 2.0 | 0.00 | 0.22 | 0.00 | 96 | 1014.6 |
| 20260905131039 | 78 | 246 | 0.0 | 4.0 | 0.00 | 0.22 | 0.00 | 96 | 1014.5 |
| 20260905130538 | 78 | 225 | 0.0 | 5.0 | 0.00 | 0.22 | 0.00 | 96 | 1014.5 |
| 20260905130036 | 78 | 231 | 0.0 | 5.0 | 0.00 | 0.22 | 0.00 | 96 | 1014.5 |
| 20260905125536 | 78 | 238 | 0.0 | 2.0 | 0.00 | 0.22 | 0.00 | 96 | 1014.3 |
| 20260905125033 | 77 | 246 | 0.0 | 0.0 | 0.00 | 0.22 | 0.00 | 96 | 1014.4 |
| 20260905124536 | 77 | 246 | 0.0 | 0.0 | 0.00 | 0.22 | 0.00 | 96 | 1014.3 |
| 20260905124034 | 77 | 248 | 0.0 | 1.0 | 0.00 | 0.22 | 0.00 | 96 | 1014.3 |
| 20260905123530 | 77 | 242 | 0.0 | 1.0 | 0.00 | 0.22 | 0.00 | 96 | 1014.3 |
| 20260905123029 | 77 | 257 | 0.0 | 0.0 | 0.00 | 0.22 | 0.00 | 96 | 1014.4 |
| 20260905122528 | 76 | 258 | 0.0 | 0.0 | 0.00 | 0.22 | 0.00 | 96 | 1014.6 |
| 20260905122126 | 76 | 237 | 0.0 | 0.0 | 0.00 | 0.22 | 0.00 | 96 | 1014.4 |
| 20260905121525 | 76 | 236 | 0.0 | 0.0 | 0.00 | 0.22 | 0.00 | 96 | 1014.3 |
| 20260905121028 | 76 | 237 | 0.0 | 0.0 | 0.00 | 0.22 | 0.00 | 96 | 1014.2 |
| 20260905120522 | 76 | 237 | 0.0 | 0.0 | 0.00 | 0.22 | 0.00 | 96 | 1014.1 |
| 20260905120021 | 76 | 237 | 0.0 | 0.0 | 0.00 | 0.22 | 0.00 | 96 | 1013.9 |
| 20260905115520 | 76 | 237 | 0.0 | 1.0 | 0.00 | 0.22 | 0.00 | 96 | 1013.7 |
| 20260905115019 | 76 | 237 | 0.0 | 1.0 | 0.00 | 0.22 | 0.00 | 96 | 1013.7 |
| 20260905114532 | 75 | 236 | 0.0 | 1.0 | 0.00 | 0.22 | 0.00 | 96 | 1013.6 |
| 20260905114020 | 75 | 237 | 0.0 | 0.0 | 0.00 | 0.22 | 0.00 | 96 | 1013.6 |
| 20260905113521 | 75 | 237 | 0.0 | 0.0 | 0.00 | 0.22 | 0.00 | 96 | 1013.5 |
| 20260905113030 | 75 | 237 | 0.0 | 0.0 | 0.00 | 0.22 | 0.00 | 96 | 1013.5 |
| 20260905112516 | 75 | 236 | 0.0 | 0.0 | 0.00 | 0.22 | 0.00 | 96 | 1013.5 |
| 20260905112016 | 75 | 237 | 0.0 | 0.0 | 0.00 | 0.22 | 0.00 | 96 | 1013.4 |
| 20260905111515 | 75 | 237 | 0.0 | 0.0 | 0.00 | 0.22 | 0.00 | 96 | 1013.4 |
| 20260905111015 | 75 | 237 | 0.0 | 0.0 | 0.00 | 0.22 | 0.00 | 96 | 1013.5 |
| 20260905110516 | 75 | 236 | 0.0 | 0.0 | 0.00 | 0.22 | 0.00 | 96 | 1013.3 |
| 20260905110015 | 75 | 237 | 0.0 | 0.0 | 0.00 | 0.22 | 0.00 | 96 | 1013.3 |
| 20260905105514 | 75 | 237 | 0.0 | 0.0 | 0.00 | 0.22 | 0.00 | 96 | 1013.3 |
| 20260905105012 | 76 | 236 | 0.0 | 0.0 | 0.00 | 0.22 | 0.00 | 96 | 1013.2 |
| 20260905104519 | 75 | 250 | 0.0 | 0.0 | 0.00 | 0.22 | 0.00 | 96 | 1013.1 |
| 20260905104010 | 75 | 284 | 0.0 | 0.0 | 0.00 | 0.22 | 0.00 | 96 | 1013.0 |
| 20260905103510 | 75 | 284 | 0.0 | 0.0 | 0.00 | 0.22 | 0.00 | 96 | 1013.0 |
| 20260905103021 | 75 | 284 | 0.0 | 0.0 | 0.00 | 0.22 | 0.00 | 96 | 1013.2 |
| 20260905102509 | 75 | 284 | 0.0 | 0.0 | 0.00 | 0.22 | 0.00 | 96 | 1013.1 |
| 20260905102011 | 75 | 284 | 0.0 | 0.0 | 0.00 | 0.22 | 0.00 | 95 | 1013.0 |
| 20260905101507 | 75 | 284 | 0.0 | 0.0 | 0.00 | 0.22 | 0.00 | 96 | 1013.1 |
| 20260905101006 | 75 | 284 | 0.0 | 0.0 | 0.00 | 0.22 | 0.00 | 96 | 1013.1 |
| 20260905100508 | 75 | 284 | 0.0 | 0.0 | 0.00 | 0.22 | 0.00 | 96 | 1013.1 |
| 20260905100010 | 75 | 284 | 0.0 | 0.0 | 0.00 | 0.22 | 0.00 | 95 | 1013.1 |
| 20260905095504 | 75 | 284 | 0.0 | 0.0 | 0.00 | 0.22 | 0.00 | 96 | 1013.2 |
| 20260905095004 | 75 | 284 | 0.0 | 0.0 | 0.00 | 0.22 | 0.00 | 96 | 1013.3 |
| 20260905094510 | 75 | 284 | 0.0 | 0.0 | 0.00 | 0.22 | 0.00 | 95 | 1013.2 |
| 20260905094003 | 75 | 284 | 0.0 | 0.0 | 0.00 | 0.22 | 0.00 | 95 | 1013.3 |
| 20260905093504 | 75 | 284 | 0.0 | 0.0 | 0.00 | 0.22 | 0.00 | 95 | 1013.2 |
| 20260905093001 | 75 | 284 | 0.0 | 0.0 | 0.00 | 0.22 | 0.00 | 95 | 1013.3 |
| 20260905092501 | 75 | 284 | 0.0 | 0.0 | 0.00 | 0.22 | 0.00 | 95 | 1013.2 |
| 20260905092059 | 75 | 284 | 0.0 | 0.0 | 0.00 | 0.22 | 0.00 | 95 | 1013.2 |
| 20260905091605 | 75 | 284 | 0.0 | 0.0 | 0.00 | 0.22 | 0.00 | 95 | 1013.0 |
| 20260905091059 | 75 | 284 | 0.0 | 0.0 | 0.00 | 0.22 | 0.00 | 95 | 1012.9 |
| 20260905090558 | 75 | 284 | 0.0 | 0.0 | 0.00 | 0.22 | 0.00 | 95 | 1012.9 |
| 20260905090059 | 75 | 284 | 0.0 | 0.0 | 0.00 | 0.22 | 0.00 | 95 | 1012.9 |
| 20260905085557 | 75 | 284 | 0.0 | 0.0 | 0.00 | 0.22 | 0.00 | 95 | 1012.9 |
| 20260905085058 | 75 | 284 | 0.0 | 0.0 | 0.00 | 0.22 | 0.00 | 95 | 1013.0 |
| 20260905084557 | 75 | 284 | 0.0 | 0.0 | 0.00 | 0.22 | 0.00 | 95 | 1012.9 |
| 20260905084055 | 75 | 284 | 0.0 | 0.0 | 0.00 | 0.22 | 0.00 | 95 | 1012.9 |
| 20260905083552 | 75 | 284 | 0.0 | 0.0 | 0.00 | 0.22 | 0.00 | 95 | 1013.0 |
| 20260905083049 | 75 | 284 | 0.0 | 0.0 | 0.00 | 0.22 | 0.00 | 95 | 1013.0 |
| 20260905082547 | 75 | 284 | 0.0 | 0.0 | 0.00 | 0.22 | 0.00 | 95 | 1012.9 |
| 20260905082046 | 75 | 284 | 0.0 | 0.0 | 0.00 | 0.22 | 0.00 | 95 | 1013.0 |
| 20260905081543 | 75 | 284 | 0.0 | 0.0 | 0.00 | 0.22 | 0.00 | 95 | 1012.9 |
| 20260905081043 | 75 | 284 | 0.0 | 0.0 | 0.00 | 0.22 | 0.00 | 95 | 1012.9 |
| 20260905080543 | 75 | 284 | 0.0 | 0.0 | 0.00 | 0.22 | 0.00 | 95 | 1012.9 |
| 20260905080050 | 75 | 284 | 0.0 | 0.0 | 0.00 | 0.22 | 0.00 | 95 | 1012.8 |
| 20260905075543 | 75 | 284 | 0.0 | 0.0 | 0.00 | 0.22 | 0.00 | 95 | 1012.8 |
| 20260905075040 | 75 | 284 | 0.0 | 0.0 | 0.00 | 0.22 | 0.00 | 95 | 1012.8 |
| 20260905074540 | 75 | 284 | 0.0 | 0.0 | 0.00 | 0.22 | 0.00 | 95 | 1012.9 |
| 20260905074040 | 75 | 284 | 0.0 | 0.0 | 0.00 | 0.22 | 0.00 | 95 | 1012.9 |
| 20260905073538 | 75 | 284 | 0.0 | 0.0 | 0.00 | 0.22 | 0.00 | 95 | 1013.0 |
| 20260905073038 | 75 | 284 | 0.0 | 0.0 | 0.00 | 0.22 | 0.00 | 95 | 1012.9 |
| 20260905072536 | 75 | 284 | 0.0 | 0.0 | 0.00 | 0.22 | 0.00 | 95 | 1013.0 |
| 20260905072037 | 75 | 284 | 0.0 | 0.0 | 0.00 | 0.22 | 0.00 | 95 | 1013.1 |
| 20260905071534 | 75 | 284 | 0.0 | 0.0 | 0.00 | 0.22 | 0.00 | 95 | 1013.2 |
| 20260905071033 | 75 | 284 | 0.0 | 0.0 | 0.00 | 0.22 | 0.00 | 95 | 1013.2 |
| 20260905070532 | 75 | 284 | 0.0 | 0.0 | 0.00 | 0.22 | 0.00 | 95 | 1013.3 |
| 20260905070036 | 75 | 284 | 0.0 | 0.0 | 0.00 | 0.22 | 0.00 | 95 | 1013.4 |
| 20260905065531 | 75 | 284 | 0.0 | 0.0 | 0.00 | 0.22 | 0.00 | 95 | 1013.5 |
| 20260905065030 | 75 | 284 | 0.0 | 0.0 | 0.00 | 0.22 | 0.00 | 95 | 1013.5 |
| 20260905064534 | 75 | 284 | 0.0 | 0.0 | 0.00 | 0.22 | 0.00 | 95 | 1013.6 |
| 20260905064031 | 75 | 284 | 0.0 | 0.0 | 0.00 | 0.22 | 0.00 | 95 | 1013.5 |
| 20260905063630 | 75 | 284 | 0.0 | 0.0 | 0.00 | 0.22 | 0.00 | 95 | 1013.5 |
| 20260905063028 | 75 | 284 | 0.0 | 0.0 | 0.00 | 0.22 | 0.00 | 95 | 1013.6 |
| 20260905062527 | 75 | 284 | 0.0 | 0.0 | 0.00 | 0.22 | 0.00 | 95 | 1013.6 |
| 20260905062026 | 75 | 284 | 0.0 | 0.0 | 0.00 | 0.22 | 0.00 | 95 | 1013.7 |
| 20260905061626 | 75 | 284 | 0.0 | 0.0 | 0.00 | 0.22 | 0.00 | 95 | 1013.8 |
| 20260905061024 | 75 | 284 | 0.0 | 0.0 | 0.00 | 0.22 | 0.00 | 95 | 1013.8 |
| 20260905060525 | 75 | 284 | 0.0 | 0.0 | 0.00 | 0.22 | 0.00 | 95 | 1013.9 |
| 20260905060033 | 75 | 284 | 0.0 | 0.0 | 0.00 | 0.22 | 0.00 | 95 | 1013.7 |
| 20260905055521 | 75 | 284 | 0.0 | 0.0 | 0.00 | 0.22 | 0.00 | 95 | 1013.7 |
| 20260905055020 | 75 | 284 | 0.0 | 0.0 | 0.00 | 0.22 | 0.00 | 95 | 1013.9 |
| 20260905054520 | 75 | 284 | 0.0 | 0.0 | 0.00 | 0.22 | 0.00 | 95 | 1014.1 |
| 20260905054018 | 75 | 284 | 0.0 | 0.0 | 0.00 | 0.22 | 0.00 | 95 | 1014.1 |
| 20260905053519 | 75 | 284 | 0.0 | 0.0 | 0.00 | 0.22 | 0.00 | 95 | 1014.1 |
| 20260905053028 | 75 | 284 | 0.0 | 0.0 | 0.00 | 0.22 | 0.00 | 95 | 1014.1 |
| 20260905052519 | 75 | 284 | 0.0 | 0.0 | 0.00 | 0.22 | 0.00 | 95 | 1014.3 |
| 20260905052015 | 75 | 284 | 0.0 | 0.0 | 0.00 | 0.22 | 0.00 | 95 | 1014.4 |
| 20260905051514 | 75 | 284 | 0.0 | 0.0 | 0.00 | 0.22 | 0.00 | 95 | 1014.4 |
| 20260905051012 | 75 | 284 | 0.0 | 0.0 | 0.00 | 0.22 | 0.00 | 95 | 1014.4 |
| 20260905050514 | 75 | 284 | 0.0 | 0.0 | 0.00 | 0.22 | 0.00 | 95 | 1014.3 |
| 20260905050012 | 75 | 284 | 0.0 | 0.0 | 0.00 | 0.22 | 0.00 | 95 | 1014.4 |
| 20260905045513 | 75 | 284 | 0.0 | 0.0 | 0.00 | 0.22 | 0.00 | 95 | 1014.5 |
| 20260905045010 | 75 | 284 | 0.0 | 0.0 | 0.00 | 0.22 | 0.00 | 95 | 1014.5 |
| 20260905044510 | 75 | 284 | 0.0 | 0.0 | 0.00 | 0.22 | 0.00 | 95 | 1014.5 |
| 20260905044012 | 75 | 285 | 0.0 | 0.0 | 0.00 | 0.22 | 0.00 | 95 | 1014.5 |
| 20260905043510 | 75 | 285 | 0.0 | 0.0 | 0.00 | 0.22 | 0.00 | 95 | 1014.4 |
| 20260905043008 | 75 | 285 | 0.0 | 0.0 | 0.00 | 0.22 | 0.00 | 95 | 1014.3 |
| 20260905042506 | 75 | 285 | 0.0 | 0.0 | 0.00 | 0.22 | 0.00 | 95 | 1014.3 |
| 20260905042007 | 75 | 285 | 0.0 | 0.0 | 0.00 | 0.22 | 0.00 | 95 | 1014.2 |
| 20260905041506 | 75 | 285 | 0.0 | 0.0 | 0.00 | 0.22 | 0.00 | 95 | 1014.3 |
| 20260905041004 | 75 | 269 | 0.0 | 0.0 | 0.00 | 0.22 | 0.00 | 95 | 1014.3 |
| 20260905040503 | 75 | 269 | 0.0 | 0.0 | 0.00 | 0.22 | 0.00 | 95 | 1014.3 |
| 20260905040002 | 75 | 245 | 0.0 | 0.0 | 0.00 | 0.22 | 0.22 | 95 | 1014.3 |
| 20260905035501 | 75 | 245 | 0.0 | 0.0 | 0.00 | 0.22 | 0.22 | 95 | 1014.5 |
| 20260905035001 | 75 | 245 | 0.0 | 0.0 | 0.00 | 0.22 | 0.22 | 95 | 1014.6 |
| 20260905034501 | 75 | 245 | 0.0 | 0.0 | 0.00 | 0.22 | 0.22 | 95 | 1014.5 |
| 20260905034059 | 75 | 245 | 0.0 | 0.0 | 0.00 | 0.22 | 0.22 | 95 | 1014.6 |
| 20260905033600 | 75 | 245 | 0.0 | 0.0 | 0.00 | 0.22 | 0.22 | 95 | 1014.6 |
| 20260905033102 | 75 | 245 | 0.0 | 0.0 | 0.00 | 0.22 | 0.22 | 95 | 1014.5 |
| 20260905032559 | 75 | 245 | 0.0 | 0.0 | 0.00 | 0.22 | 0.22 | 95 | 1014.6 |
| 20260905032058 | 75 | 245 | 0.0 | 0.0 | 0.00 | 0.22 | 0.22 | 95 | 1014.7 |
| 20260905031559 | 75 | 245 | 0.0 | 0.0 | 0.00 | 0.22 | 0.22 | 95 | 1014.8 |
| 20260905031056 | 75 | 245 | 0.0 | 0.0 | 0.00 | 0.22 | 0.22 | 95 | 1014.9 |
| 20260905030556 | 75 | 245 | 0.0 | 0.0 | 0.00 | 0.22 | 0.22 | 95 | 1014.8 |
| 20260905030115 | 75 | 245 | 0.0 | 0.0 | 0.00 | 0.22 | 0.22 | 95 | 1014.8 |
| 20260905025554 | 75 | 245 | 0.0 | 0.0 | 0.00 | 0.22 | 0.22 | 95 | 1014.8 |
| 20260905025054 | 75 | 246 | 0.0 | 0.0 | 0.00 | 0.22 | 0.22 | 94 | 1014.9 |
| 20260905024555 | 75 | 245 | 0.0 | 0.0 | 0.00 | 0.22 | 0.22 | 95 | 1015.0 |
| 20260905024053 | 75 | 246 | 0.0 | 0.0 | 0.00 | 0.22 | 0.22 | 95 | 1015.0 |
| 20260905023554 | 75 | 245 | 0.0 | 0.0 | 0.00 | 0.22 | 0.22 | 94 | 1015.0 |
| 20260905023052 | 75 | 245 | 0.0 | 0.0 | 0.00 | 0.22 | 0.22 | 94 | 1015.0 |
| 20260905022551 | 75 | 245 | 0.0 | 0.0 | 0.00 | 0.22 | 0.22 | 94 | 1015.0 |
| 20260905022052 | 75 | 245 | 0.0 | 0.0 | 0.00 | 0.22 | 0.22 | 94 | 1015.0 |
| 20260905021550 | 75 | 245 | 0.0 | 0.0 | 0.00 | 0.22 | 0.22 | 94 | 1015.1 |
| 20260905021048 | 75 | 245 | 0.0 | 0.0 | 0.00 | 0.22 | 0.22 | 94 | 1015.1 |
| 20260905020551 | 75 | 245 | 0.0 | 0.0 | 0.00 | 0.22 | 0.22 | 94 | 1015.0 |
| 20260905020100 | 75 | 245 | 0.0 | 0.0 | 0.00 | 0.22 | 0.22 | 94 | 1015.0 |
| 20260905015548 | 75 | 245 | 0.0 | 0.0 | 0.00 | 0.22 | 0.22 | 94 | 1015.0 |
| 20260905015047 | 75 | 245 | 0.0 | 1.0 | 0.00 | 0.22 | 0.22 | 94 | 1014.9 |
| 20260905014548 | 75 | 245 | 0.0 | 1.0 | 0.00 | 0.22 | 0.22 | 94 | 1015.0 |
| 20260905014047 | 75 | 261 | 0.0 | 0.0 | 0.00 | 0.22 | 0.22 | 94 | 1015.1 |
| 20260905013545 | 75 | 157 | 0.0 | 0.0 | 0.00 | 0.22 | 0.22 | 94 | 1015.0 |
| 20260905013044 | 75 | 261 | 0.0 | 0.0 | 0.00 | 0.22 | 0.22 | 94 | 1015.0 |
| 20260905012543 | 75 | 261 | 0.0 | 0.0 | 0.00 | 0.22 | 0.22 | 94 | 1015.1 |
| 20260905012043 | 75 | 314 | 0.0 | 0.0 | 0.00 | 0.22 | 0.22 | 94 | 1015.1 |
| 20260905011542 | 75 | 354 | 0.0 | 1.0 | 0.00 | 0.22 | 0.22 | 94 | 1015.1 |
| 20260905011041 | 75 | 266 | 0.0 | 2.0 | 0.00 | 0.22 | 0.22 | 94 | 1014.9 |
| 20260905010541 | 75 | 269 | 0.0 | 2.0 | 0.00 | 0.22 | 0.22 | 93 | 1014.9 |
| 20260905010040 | 75 | 227 | 0.0 | 0.0 | 0.00 | 0.22 | 0.22 | 94 | 1014.8 |
| 20260905005537 | 75 | 60 | 0.0 | 0.0 | 0.00 | 0.22 | 0.22 | 94 | 1014.8 |
| 20260905005038 | 75 | 53 | 0.0 | 0.0 | 0.00 | 0.22 | 0.22 | 94 | 1014.8 |
| 20260905004541 | 75 | 53 | 0.0 | 1.0 | 0.00 | 0.22 | 0.22 | 94 | 1014.6 |
| 20260905004035 | 76 | 108 | 0.0 | 1.0 | 0.00 | 0.22 | 0.22 | 93 | 1014.5 |
| 20260905003535 | 76 | 110 | 0.0 | 1.0 | 0.00 | 0.22 | 0.22 | 93 | 1014.5 |
| 20260905003035 | 76 | 274 | 0.0 | 1.0 | 0.00 | 0.22 | 0.22 | 93 | 1014.5 |
| 20260905002534 | 76 | 298 | 0.0 | 0.0 | 0.00 | 0.22 | 0.22 | 93 | 1014.4 |
| 20260905002034 | 77 | 158 | 0.0 | 0.0 | 0.00 | 0.22 | 0.22 | 93 | 1014.3 |
| 20260905001534 | 77 | 158 | 0.0 | 1.0 | 0.00 | 0.22 | 0.22 | 93 | 1014.4 |
| 20260905001036 | 78 | 287 | 0.0 | 1.0 | 0.00 | 0.22 | 0.22 | 93 | 1014.5 |
| 20260905000532 | 78 | 283 | 0.0 | 1.0 | 0.00 | 0.22 | 0.22 | 93 | 1014.4 |
| 20260905000031 | 79 | 37 | 0.0 | 1.0 | 0.00 | 0.22 | 0.22 | 93 | 1014.4 |
| 20260904235531 | 80 | 120 | 0.0 | 1.0 | 0.00 | 0.22 | 0.22 | 94 | 1014.1 |
| 20260904235031 | 80 | 159 | 0.0 | 0.0 | 0.00 | 0.22 | 0.22 | 95 | 1014.2 |
| 20260904234529 | 80 | 245 | 0.0 | 0.0 | 0.00 | 0.22 | 0.22 | 95 | 1014.0 |
| 20260904234029 | 80 | 245 | 0.0 | 0.0 | 0.00 | 0.22 | 0.22 | 95 | 1014.1 |
| 20260904233528 | 80 | 245 | 0.0 | 0.0 | 0.00 | 0.22 | 0.22 | 94 | 1014.1 |
| 20260904233028 | 80 | 245 | 0.0 | 0.0 | 0.00 | 0.22 | 0.22 | 94 | 1014.1 |
| 20260904232528 | 80 | 245 | 0.0 | 0.0 | 0.00 | 0.22 | 0.22 | 94 | 1014.0 |
| 20260904232026 | 81 | 245 | 0.0 | 0.0 | 0.00 | 0.22 | 0.22 | 94 | 1014.0 |
| 20260904231528 | 81 | 245 | 0.0 | 0.0 | 0.00 | 0.22 | 0.22 | 94 | 1014.0 |
| 20260904231026 | 81 | 245 | 0.0 | 0.0 | 0.00 | 0.22 | 0.22 | 94 | 1014.2 |
| 20260904230525 | 81 | 245 | 0.0 | 0.0 | 0.01 | 0.22 | 0.22 | 94 | 1014.2 |
| 20260904230024 | 81 | 245 | 0.0 | 0.0 | 0.01 | 0.22 | 0.22 | 94 | 1014.2 |
| 20260904225523 | 81 | 245 | 0.0 | 0.0 | 0.01 | 0.22 | 0.22 | 94 | 1014.2 |
| 20260904225022 | 81 | 245 | 0.0 | 0.0 | 0.02 | 0.22 | 0.22 | 94 | 1014.0 |
| 20260904224524 | 81 | 245 | 0.0 | 0.0 | 0.02 | 0.22 | 0.22 | 94 | 1014.1 |
| 20260904224024 | 81 | 245 | 0.0 | 0.0 | 0.02 | 0.22 | 0.22 | 94 | 1014.1 |
| 20260904223521 | 81 | 245 | 0.0 | 0.0 | 0.02 | 0.22 | 0.22 | 94 | 1014.3 |
| 20260904223025 | 81 | 245 | 0.0 | 0.0 | 0.03 | 0.22 | 0.22 | 94 | 1014.3 |
| 20260904222522 | 81 | 245 | 0.0 | 0.0 | 0.03 | 0.22 | 0.22 | 94 | 1014.3 |
| 20260904222019 | 81 | 245 | 0.0 | 0.0 | 0.03 | 0.22 | 0.22 | 94 | 1014.2 |
| 20260904221519 | 81 | 245 | 0.0 | 0.0 | 0.04 | 0.22 | 0.22 | 94 | 1013.9 |
| 20260904221018 | 81 | 245 | 0.0 | 0.0 | 0.03 | 0.21 | 0.21 | 94 | 1014.0 |
| 20260904220518 | 81 | 245 | 0.0 | 0.0 | 0.03 | 0.21 | 0.21 | 94 | 1014.1 |